Startseite
Über Mich
AHP4
Galerie
Sehschlangen
Tourenbuch
Bookmarks
Elektronik
Bewertung
Geschichten
[Tagesmessung] [Jahreswerte] [Information]

Messwerte vom 28.09.2022

Die letzten Messwerte von 23:58:45 Uhr:
KategorieMesswert
Temperatur [°C]8
Luftdruck [mBar]984
Sonneneinstrahlung0
Wind [km/h]0 aus Nordost
Niederschlag [l/m²]0
rel.Luftfeucht.96.6%
CO2 [ppm]978

Diagramme
Messwerte vom 28.09.2022
Tagesaggregation
KategorieMinimumMaximumSchnittSumme
Temperatur [°C]5118.2359
Luftdruck [mBar]978984980.5846
Sonneneinstrahlung22288.1086
Wind [km/h]8
rF [%]96.696.696.6
Niederschlag [l/m²]4.635
CO2 [ppm]715984877.0
Einordnung alsVegetationstag

Messungen an benachbarten Tagen: Zur Jahresaggregation 2022
Tabelle aller Messwerte
UhrzeitTemperatur [°C]Luftdruck [mBar]SonneWind [km/h]RichtungRegen [l/m²]rF [%]CO2 [ppm]
00:01:48 8 981 0 0 SO 0 96.6 882
00:04:47 8 980 0 0 O 0 96.6 886
00:07:46 8 981 0 0 S 0 96.6 885
00:10:47 8 980 0 0 SO 0 96.6 887
00:13:48 8 981 0 0 SO 0 96.6 887
00:16:48 8 981 0 0 SW 0 96.6 888
00:19:47 8 980 0 0 SO 0 96.6 887
00:22:48 8 981 0 0 SW 0 96.6 885
00:25:47 8 980 0 0 S 0 96.6 885
00:28:45 8 981 0 0 S 0 96.6 884
00:31:46 8 981 0 0 S 0 96.6 893
00:34:50 8 981 0 0 SO 0 96.6 895
00:37:47 8 981 0 0 O 0 96.6 890
00:40:48 8 981 0 0 O 0 96.6 895
00:43:46 8 981 0 0 S 0 96.6 898
00:46:46 8 981 0 0 O 0 96.6 886
00:49:48 8 981 0 0 S 0 96.6 888
00:52:46 8 981 0 0 S 0 96.6 885
00:55:48 8 981 0 0 SW 0 96.6 890
00:58:45 8 981 0 0 S 0 96.6 896
01:01:48 8 981 0 0 N 0 96.6 894
01:04:50 8 981 0 0 SW 0 96.6 896
01:07:46 8 981 0 0 S 0 96.6 902
01:10:47 8 981 0 0 S 0 96.6 898
01:13:48 8 980 0 0 SO 0 96.6 888
01:16:45 8 980 0 0 S 0 96.6 884
01:19:46 8 981 0 0 S 0 96.6 979
01:22:48 8 981 0 0 SO 0 96.6 980
01:25:49 8 981 0 0 SW 0 96.6 978
01:28:48 8 981 0 0 SO 0 96.6 967
01:31:45 8 981 0 0 S 0 96.6 960
01:34:46 8 980 0 0 SO 0 96.6 957
01:37:46 8 980 0 0 S 0 96.6 948
01:40:45 8 981 0 0 S 0 96.6 952
01:43:46 8 980 0 0 SO 0 96.6 963
01:46:47 8 980 0 0 SO 0 96.6 957
01:49:45 8 980 0 0 W 0 96.6 960
01:52:45 8 981 0 0 S 0 96.6 960
01:55:47 8 981 0 0 SO 0 96.6 963
01:58:47 8 981 0 0 SW 0 96.6 962
02:01:48 8 980 0 0 S 0 96.6 963
02:04:47 8 980 0 0 S 0 96.6 960
02:07:48 8 980 0 0 W 0 96.6 970
02:10:52 8 980 0 0 NW 0 96.6 973
02:13:45 8 981 0 0 S 0 96.6 977
02:16:48 8 980 0 0 SW 0 96.6 963
02:19:47 8 980 0 2 SW 0 96.6 963
02:22:47 8 980 0 0 S 0 96.6 963
02:25:48 8 980 0 0 SO 0 96.6 976
02:28:47 8 980 0 6 S 0 96.6 974
02:31:46 8 980 0 0 S 0 96.6 971
02:34:48 8 980 0 0 SO 0 96.6 971
02:37:47 8 980 0 0 O 0 96.6 972
02:40:48 8 980 0 0 W 0 96.6 984
02:43:45 8 980 0 0 S 0 96.6 979
02:46:45 8 980 0 0 S 0 96.6 975
02:49:48 8 980 0 0 SO 0 96.6 978
02:52:47 8 980 0 3 SO 0 96.6 968
02:55:47 8 980 0 1 S 0 96.6 983
02:58:47 8 980 0 2 0 96.6 980
03:01:45 8 980 0 1 S 0 96.6 971
03:04:47 8 980 0 8 S 0 96.6 968
03:07:47 8 980 0 0 SO 0 96.6 973
03:10:48 8 980 0 0 SO 0 96.6 977
03:13:48 7 980 0 0 SO 0 96.6 976
03:16:46 7 980 0 0 S 0 96.6 975
03:19:45 7 980 0 0 S 0 96.6 952
03:22:46 7 980 0 0 O 0 96.6 951
03:25:45 7 980 0 0 S 0 96.6 945
03:28:47 7 980 0 0 S 0 96.6 958
03:31:46 7 980 0 0 S 0 96.6 963
03:34:48 7 980 0 0 SO 0 96.6 964
03:37:48 7 980 0 0 S 0 96.6 950
03:40:47 7 980 0 0 SO 0 96.6 961
03:43:46 7 980 0 0 S 0 96.6 953
03:46:48 7 980 0 0 SO 0 96.6 963
03:49:47 6 980 0 0 SO 0 96.6 954
03:52:47 6 980 0 0 SO 0 96.6 953
03:55:47 6 980 0 0 SO 0 96.6 943
03:58:47 6 979 0 0 SO 0 96.6 956
04:01:48 6 980 0 0 SO 0 96.6 944
04:04:46 6 980 0 0 SO 0 96.6 925
04:07:47 6 980 0 0 SO 0 96.6 937
04:10:46 6 980 0 0 SO 0 96.6 950
04:13:45 6 980 0 0 NO 0 96.6 939
04:16:47 6 980 0 0 NO 0 96.6 943
04:19:47 5 980 0 0 NO 0 96.6 922
04:22:47 5 980 0 0 NO 0 96.6 910
04:25:46 5 980 0 0 N 0 96.6 907
04:28:46 5 979 0 0 N 0 96.6 908
04:31:46 5 980 0 0 N 0 96.6 902
04:34:48 5 980 0 0 SO 0 96.6 902
04:37:47 5 980 0 0 SO 0 96.6 897
04:40:48 5 980 0 0 SO 0 96.6 896
04:43:52 5 979 0 0 SO 0 96.6 898
04:46:47 5 980 0 0 SO 0 96.6 915
04:49:44 5 979 0 0 SO 0 96.6 912
04:52:47 5 980 0 0 SO 0 96.6 908
04:55:47 5 979 0 0 SO 0 96.6 902
04:58:46 5 980 0 0 SO 0 96.6 899
05:01:45 5 979 0 0 N 0 96.6 905
05:04:47 5 980 0 0 N 0 96.6 905
05:07:46 5 980 0 0 N 0 96.6 905
05:10:48 5 980 0 0 N 0 96.6 898
05:13:47 5 979 0 0 N 0 96.6 893
05:16:45 5 980 0 0 N 0 96.6 892
05:19:45 6 979 0 0 O 0 96.6 892
05:22:44 6 980 0 0 O 0 96.6 888
05:25:45 6 980 0 0 O 0 96.6 884
05:28:46 6 980 0 0 NO 0 96.6 887
05:31:46 6 980 0 0 NO 0 96.6 902
05:34:46 6 979 0 0 O 0 96.6 899
05:37:46 6 979 0 0 O 0 96.6 896
05:40:49 6 980 0 0 NO 0 96.6 888
05:43:46 6 979 0 0 NO 0 96.6 878
05:46:48 6 979 0 0 NO 0 96.6 875
05:49:48 6 979 0 0 NO 0 96.6 881
05:52:47 6 979 0 0 NO 0 96.6 879
05:55:47 6 980 0 0 SO 0 96.6 876
05:58:46 6 979 0 0 SO 0 96.6 882
06:01:49 6 979 0 0 SO 0 96.6 876
06:04:46 6 978 0 0 N 0 96.6 876
06:07:47 6 979 0 0 N 0 96.6 871
06:10:47 6 979 0 0 NO 0 96.6 869
06:13:47 7 979 0 0 NO 0 96.6 865
06:16:46 7 979 0 0 SO 0 96.6 863
06:19:50 7 978 0 0 SO 0 96.6 859
06:22:49 7 979 0 0 SO 0 96.6 867
06:25:48 7 979 0 0 SO 0 96.6 865
06:28:47 7 979 0 0 NO 0 96.6 860
06:31:46 7 979 0 0 SO 0 96.6 863
06:34:48 7 979 0 0 SO 0 96.6 866
06:37:47 7 979 0 0 SO 0 96.6 858
06:40:50 7 979 0 2 NO 0 96.6 859
06:43:47 7 978 0 0 O 0 96.6 851
06:46:46 7 979 0 0 NO 0 96.6 865
06:49:45 7 979 0 0 O 0 96.6 860
06:52:46 7 978 0 0 SO 0 96.6 858
06:55:50 7 978 0 0 O 0 96.6 847
06:58:45 7 979 4 0 O 0 96.6 840
07:01:46 7 979 6 0 O 0 96.6 849
07:04:46 7 978 9 0 O 0 96.6 857
07:07:46 7 978 13 0 O 0 96.6 858
07:10:46 7 978 20 0 O 0 96.6 857
07:13:47 7 979 24 1 S 0 96.6 843
07:16:46 7 978 29 0 SO 0 96.6 839
07:19:46 7 978 35 0 O 0 96.6 843
07:22:45 7 979 37 0 SO 0 96.6 846
07:25:49 7 978 35 0 SO 0 96.6 853
07:28:47 7 978 40 0 SO 0 96.6 852
07:31:47 7 979 50 0 O 0 96.6 853
07:34:45 7 979 58 0 O 0 96.6 852
07:37:45 7 979 61 0 O 0.2575 96.6 848
07:40:47 7 979 65 0 SO 0 96.6 855
07:43:45 7 978 74 0 O 0 96.6 848
07:46:46 7 979 88 0 SO 0 96.6 847
07:49:49 7 979 97 0 SO 0 96.6 841
07:52:46 7 979 102 0 O 0.2575 96.6 837
07:55:46 7 978 105 0 O 0 96.6 840
07:58:48 7 979 110 0 SO 0 96.6 848
08:01:47 7 979 117 0 SO 0 96.6 853
08:04:48 7 978 121 0 SO 0 96.6 851
08:07:49 7 979 123 0 O 0.2575 96.6 858
08:10:49 7 980 126 0 SO 0 96.6 866
08:13:49 7 978 129 0 S 0 96.6 868
08:16:48 7 979 128 0 SO 0 96.6 857
08:19:49 7 978 122 0 SO 0 96.6 855
08:22:48 7 979 115 0 S 0.2575 96.6 843
08:25:48 7 979 119 0 SO 0 96.6 831
08:28:47 7 979 127 0 NO 0 96.6 814
08:31:48 7 979 128 0 SO 0 96.6 788
08:34:46 7 979 133 0 SO 0 96.6 749
08:37:50 7 979 139 0 SO 0 96.6 725
08:40:47 7 979 141 0 SO 0 96.6 715
08:43:47 7 978 143 0 SO 0 96.6 720
08:46:46 7 979 145 0 SO 0 96.6 740
08:49:48 7 979 148 0 SO 0.2575 96.6 767
08:52:45 7 979 151 0 SO 0 96.6 774
08:55:48 7 979 153 0 SO 0 96.6 778
08:58:46 7 979 157 0 SO 0 96.6 778
09:01:48 8 979 160 0 SO 0.2575 96.6 780
09:04:47 8 979 162 0 O 0 96.6 784
09:07:49 8 979 165 0 SO 0 96.6 781
09:10:49 8 979 168 0 SO 0 96.6 776
09:13:50 8 979 172 0 SO 0 96.6 779
09:16:48 8 979 175 0 SO 0 96.6 790
09:19:48 8 978 177 0 SO 0 96.6 792
09:22:49 8 979 179 0 SO 0 96.6 799
09:25:49 8 980 180 0 SO 0.2575 96.6 797
09:28:48 8 979 181 0 SO 0 96.6 796
09:31:50 8 980 181 0 SO 0 96.6 800
09:34:49 8 979 181 0 SO 0 96.6 805
09:37:49 8 979 180 0 NW 0 96.6 806
09:40:47 8 978 179 0 SO 0.2575 96.6 809
09:43:49 8 979 178 0 SO 0 96.6 807
09:46:48 8 979 178 0 SO 0 96.6 814
09:49:47 8 979 178 0 SO 0 96.6 815
09:52:47 8 979 178 0 SO 0 96.6 808
09:55:50 8 979 179 0 SO 0 96.6 814
09:58:47 8 979 181 0 O 0 96.6 808
10:01:46 8 979 183 0 O 0.2575 96.6 802
10:04:49 8 979 184 0 SO 0 96.6 802
10:07:47 8 979 183 0 S 0.2575 96.6 809
10:10:48 8 979 183 0 SO 0 96.6 822
10:13:45 8 979 183 0 O 0 96.6 817
10:16:49 8 980 183 0 SO 0 96.6 816
10:19:51 8 980 186 0 SO 0 96.6 816
10:22:47 8 979 190 0 O 0 96.6 813
10:25:46 8 980 195 0 SO 0 96.6 816
10:28:49 8 979 199 0 SO 0 96.6 820
10:31:48 9 979 202 0 SO 0 96.6 825
10:34:48 9 980 203 0 SO 0 96.6 817
10:37:50 9 979 205 0 SO 0 96.6 823
10:40:46 9 980 206 0 N 0 96.6 824
10:43:48 9 979 206 0 N 0 96.6 826
10:46:49 9 980 207 0 NO 0 96.6 832
10:49:48 9 979 209 0 NO 0 96.6 832
10:52:47 9 979 209 0 O 0 96.6 826
10:55:49 9 980 209 0 N 0 96.6 826
10:58:46 9 979 209 0 N 0 96.6 825
11:01:48 9 980 209 0 NO 0 96.6 823
11:04:49 9 980 208 0 SO 0 96.6 822
11:07:50 9 980 207 0 NO 0 96.6 828
11:10:46 9 980 210 0 NO 0 96.6 831
11:13:49 9 980 212 0 SO 0 96.6 834
11:16:48 9 980 213 0 NO 0 96.6 840
11:19:48 9 980 214 0 NO 0 96.6 840
11:22:48 10 980 213 0 SO 0 96.6 848
11:25:46 10 980 211 0 SO 0 96.6 848
11:28:46 10 980 210 0 N 0 96.6 842
11:31:48 10 980 207 0 NO 0 96.6 842
11:34:47 10 980 207 0 O 0 96.6 838
11:37:49 10 980 209 0 NO 0 96.6 840
11:40:50 10 980 209 0 NO 0 96.6 840
11:43:49 10 980 207 0 S 0 96.6 835
11:46:47 10 979 205 0 N 0 96.6 840
11:49:48 10 980 205 0 N 0 96.6 835
11:52:47 9 980 203 0 N 0 96.6 846
11:55:46 9 980 201 0 N 0 96.6 839
11:58:47 9 980 198 0 SO 0 96.6 846
12:01:48 9 980 199 0 NO 0 96.6 841
12:04:48 9 980 201 0 O 0 96.6 832
12:07:48 10 980 201 0 SO 0 96.6 827
12:10:50 10 980 198 0 SO 0 96.6 832
12:13:49 10 979 193 0 SO 0 96.6 837
12:16:49 10 980 191 0 SO 0 96.6 841
12:19:47 10 980 191 0 SO 0 96.6 847
12:22:47 10 980 193 0 SO 0.2575 96.6 847
12:25:47 10 980 197 0 S 0 96.6 851
12:28:48 10 980 201 0 SO 0 96.6 852
12:31:49 10 980 204 0 O 0 96.6 849
12:34:48 10 980 205 0 SO 0 96.6 852
12:37:49 10 980 205 0 SO 0 96.6 849
12:40:47 10 980 203 0 S 0 96.6 843
12:43:47 10 980 201 0 SO 0 96.6 843
12:46:48 10 980 201 0 SO 0 96.6 843
12:49:47 10 980 202 0 S 0 96.6 840
12:52:48 10 980 201 0 SO 0 96.6 843
12:55:49 10 980 202 5 SW 0 96.6 841
12:58:49 10 980 201 0 SW 0 96.6 846
13:01:47 10 980 199 0 S 0 96.6 844
13:04:51 10 980 197 2 SO 0 96.6 844
13:07:48 9 980 195 4 S 0 96.6 847
13:10:48 9 980 194 3 SW 0 96.6 853
13:13:48 9 980 196 1 SW 0 96.6 847
13:16:45 9 980 197 3 S 0.2575 96.6 848
13:19:51 9 980 198 5 SW 0 96.6 847
13:22:48 9 980 200 1 O 0 96.6 844
13:25:50 9 980 202 2 SO 0 96.6 850
13:28:47 9 980 204 2 SW 0 96.6 848
13:31:47 9 980 204 4 S 0 96.6 848
13:34:47 9 980 204 2 SO 0 96.6 843
13:37:49 9 980 204 1 SO 0 96.6 845
13:40:48 9 980 205 3 S 0 96.6 855
13:43:49 9 980 206 0 SW 0 96.6 854
13:46:47 9 980 208 3 SO 0 96.6 863
13:49:47 9 980 211 0 O 0 96.6 855
13:52:47 9 980 214 0 SO 0 96.6 730
13:55:51 10 980 216 1 SO 0.2575 96.6 726
13:58:47 10 980 219 2 S 0 96.6 785
14:01:49 10 980 221 3 SO 0 96.6 800
14:04:48 10 980 221 0 SO 0 96.6 799
14:07:50 10 980 221 1 S 0 96.6 785
14:10:49 10 980 221 0 S 0 96.6 775
14:13:46 10 981 221 2 S 0.2575 96.6 757
14:16:47 10 980 221 3 S 0 96.6 766
14:19:49 10 980 220 2 O 0 96.6 766
14:22:47 10 980 219 3 S 0 96.6 766
14:25:48 11 980 218 4 S 0 96.6 772
14:28:48 11 980 216 2 O 0 96.6 779
14:31:49 10 980 214 0 O 0 96.6 779
14:34:49 10 980 212 0 O 0 96.6 794
14:37:47 10 980 211 1 O 0 96.6 810
14:40:49 10 981 209 1 O 0 96.6 826
14:43:48 10 981 206 1 O 0 96.6 825
14:46:47 10 980 204 0 SO 0 96.6 820
14:49:52 10 980 197 0 SO 0 96.6 822
14:52:49 10 980 191 0 SO 0 96.6 829
14:55:47 10 980 183 4 O 0 96.6 834
14:58:48 10 981 183 1 S 0 96.6 825
15:01:48 10 980 187 0 S 0.2575 96.6 825
15:04:47 10 980 194 1 S 0.2575 96.6 832
15:07:49 10 980 202 0 SO 0 96.6 831
15:13:48 9 980 210 0 SO 0 96.6 838
15:16:47 10 981 215 0 SO 0.2575 96.6 840
15:19:48 10 981 219 0 SO 0 96.6 846
15:22:50 10 980 219 0 SO 0 96.6 844
15:25:48 10 980 218 0 N 0 96.6 850
15:28:46 10 980 218 0 O 0 96.6 852
15:31:48 10 980 219 0 NO 0 96.6 851
15:34:47 10 980 220 0 N 0 96.6 849
15:37:48 10 980 220 0 N 0 96.6 854
15:40:47 10 981 220 0 O 0 96.6 855
15:43:48 10 981 221 0 NO 0 96.6 858
15:46:48 10 980 222 0 N 0 96.6 855
15:49:48 10 980 220 0 N 0 96.6 864
15:52:47 10 980 211 0 N 0 96.6 872
15:55:48 10 980 201 0 SO 0 96.6 878
15:58:49 10 980 188 0 SO 0 96.6 872
16:01:47 10 980 172 0 SW 0 96.6 867
16:04:46 10 981 166 0 N 0 96.6 861
16:07:47 10 980 163 0 SW 0.2575 96.6 867
16:10:49 10 980 186 0 SO 0 96.6 875
16:13:49 10 981 195 0 NW 0 96.6 875
16:16:49 10 981 193 0 NW 0 96.6 883
16:19:51 10 980 197 0 NW 0 96.6 878
16:22:49 10 980 200 0 NW 0 96.6 873
16:25:49 10 981 204 0 NW 0 96.6 880
16:28:50 10 981 206 0 NW 0 96.6 896
16:31:48 10 981 208 0 S 0 96.6 895
16:34:47 10 981 210 0 S 0 96.6 896
16:37:47 10 981 212 0 W 0 96.6 886
16:40:51 10 981 212 0 SO 0 96.6 884
16:43:47 10 981 213 0 W 0 96.6 881
16:46:47 10 981 211 0 O 0 96.6 880
16:49:46 10 981 212 0 O 0 96.6 881
16:52:46 10 982 205 0 N 0 96.6 881
16:55:47 10 981 219 0 N 0 96.6 888
16:58:48 10 981 214 0 SO 0 96.6 884
17:01:51 10 981 210 0 SW 0 96.6 884
17:04:50 10 981 213 0 SO 0 96.6 879
17:07:49 10 981 215 0 W 0 96.6 886
17:10:47 10 980 208 0 W 0 96.6 889
17:13:49 10 981 209 0 S 0 96.6 894
17:16:48 10 981 214 0 W 0 96.6 895
17:19:49 10 980 214 2 NW 0 96.6 893
17:22:49 10 981 215 0 NW 0 96.6 896
17:25:49 10 981 213 0 NW 0 96.6 895
17:28:50 10 981 209 0 NW 0 96.6 892
17:31:48 10 981 209 0 NW 0 96.6 886
17:34:50 10 981 212 0 NW 0 96.6 894
17:37:48 10 981 214 0 NW 0 96.6 889
17:40:49 10 981 213 0 SO 0 96.6 892
17:43:48 10 981 211 0 SW 0 96.6 893
17:46:48 10 981 208 0 SW 0 96.6 898
17:49:48 10 981 202 0 SW 0 96.6 898
17:52:47 9 981 200 0 SW 0 96.6 892
17:55:49 9 981 197 0 SW 0 96.6 889
17:58:47 9 981 199 0 SW 0 96.6 884
18:01:48 9 981 203 0 SO 0 96.6 887
18:04:51 9 981 203 0 SO 0 96.6 887
18:07:50 10 981 194 0 SO 0 96.6 894
18:10:49 9 981 178 0 SO 0 96.6 897
18:13:49 10 982 157 0 SO 0 96.6 898
18:16:48 9 982 154 0 SO 0 96.6 897
18:19:48 9 981 140 0 SO 0 96.6 903
18:22:48 9 981 142 0 SO 0 96.6 904
18:25:51 9 981 124 0 SO 0 96.6 896
18:28:49 9 981 113 0 SO 0 96.6 894
18:31:50 9 982 113 0 SO 0 96.6 897
18:34:48 9 982 105 0 SO 0 96.6 896
18:37:49 9 982 99 0 SO 0 96.6 899
18:40:50 9 982 92 0 SO 0 96.6 893
18:43:49 9 982 83 0 SO 0 96.6 897
18:46:46 9 982 66 0 SO 0 96.6 902
18:49:51 9 982 48 0 NO 0 96.6 902
18:52:50 9 982 34 0 NO 0 96.6 900
18:55:49 9 982 24 0 NO 0 96.6 899
18:58:47 9 982 17 0 NO 0 96.6 904
19:01:47 9 982 17 0 NO 0 96.6 900
19:04:47 9 982 18 0 NO 0 96.6 899
19:07:48 9 981 18 0 SO 0 96.6 899
19:10:46 9 982 14 0 S 0 96.6 899
19:13:47 9 982 10 0 S 0 96.6 899
19:16:45 9 982 7 0 S 0 96.6 898
19:19:43 9 981 5 0 S 0 96.6 905
19:22:47 9 983 4 0 S 0 96.6 896
19:25:46 9 982 3 0 S 0 96.6 897
19:28:45 9 982 3 0 S 0 96.6 902
19:31:46 9 982 3 0 S 0 96.6 899
19:34:46 9 982 0 0 S 0 96.6 898
19:37:47 9 982 0 0 S 0 96.6 899
19:40:45 9 983 0 0 S 0 96.6 892
19:43:46 9 982 0 0 O 0 96.6 900
19:46:46 9 983 3 0 O 0 96.6 899
19:49:47 9 982 0 0 SO 0 96.6 914
19:52:49 8 982 0 0 SO 0 96.6 920
19:55:47 8 982 0 0 SO 0 96.6 922
19:58:49 8 982 0 0 SO 0 96.6 922
20:01:47 8 983 0 0 SO 0 96.6 925
20:04:47 8 983 0 0 SO 0 96.6 919
20:07:49 8 983 0 0 SO 0 96.6 917
20:10:46 8 983 0 0 SO 0 96.6 916
20:13:46 8 983 0 0 O 0 96.6 923
20:16:46 8 983 0 0 S 0 96.6 926
20:19:48 8 982 0 0 S 0 96.6 893
20:22:46 8 982 0 0 S 0 96.6 752
20:25:51 8 983 0 0 SW 0 96.6 744
20:28:47 8 983 0 0 SO 0 96.6 791
20:31:46 8 983 0 0 O 0 96.6 821
20:34:46 8 983 0 0 W 0 96.6 838
20:37:46 8 982 0 0 W 0 96.6 838
20:40:45 8 983 0 0 W 0 96.6 846
20:43:47 8 983 0 0 W 0 96.6 849
20:46:46 8 983 0 0 W 0 96.6 849
20:49:47 8 982 0 0 W 0 96.6 850
20:52:48 8 982 0 0 W 0 96.6 857
20:55:47 8 983 0 0 W 0 96.6 869
20:58:47 8 983 0 0 W 0 96.6 870
21:01:48 8 983 0 0 SO 0 96.6 869
21:04:48 8 983 0 0 SO 0 96.6 861
21:07:49 8 983 0 0 SO 0 96.6 862
21:10:47 8 983 0 0 SO 0 96.6 870
21:13:48 8 983 0 0 SO 0 96.6 875
21:16:48 8 983 0 0 SO 0 96.6 879
21:19:49 8 983 0 0 SO 0 96.6 879
21:22:47 8 983 0 0 SW 0 96.6 879
21:25:47 8 983 0 0 SW 0 96.6 878
21:28:46 8 983 0 0 O 0 96.6 885
21:31:47 8 983 0 0 O 0 96.6 887
21:34:49 8 982 0 0 SO 0 96.6 884
21:37:46 8 984 0 0 S 0 96.6 888
21:40:46 8 983 0 0 S 0 96.6 888
21:43:48 8 983 0 0 SO 0 96.6 890
21:46:45 8 984 0 0 W 0 96.6 893
21:49:46 8 984 0 0 SW 0 96.6 891
21:52:46 8 983 0 0 SO 0 96.6 899
21:55:47 8 983 0 0 SW 0 96.6 898
21:58:47 8 983 0 0 S 0 96.6 899
22:01:47 8 983 0 0 SO 0 96.6 897
22:04:47 8 984 0 0 SO 0 96.6 896
22:07:48 8 983 0 0 W 0 96.6 898
22:10:47 8 983 0 0 W 0 96.6 898
22:13:45 8 984 0 0 S 0 96.6 902
22:16:47 8 983 0 0 S 0 96.6 896
22:19:47 8 984 0 0 S 0 96.6 899
22:22:46 8 984 0 0 SO 0 96.6 904
22:25:47 8 983 0 0 SO 0 96.6 909
22:28:46 8 984 0 0 W 0 96.6 916
22:31:47 8 983 0 0 SW 0 96.6 930
22:34:47 8 983 0 0 SW 0 96.6 937
22:37:46 8 983 0 0 SW 0 96.6 937
22:40:49 8 984 0 0 SW 0 96.6 945
22:43:47 8 984 0 0 SW 0 96.6 940
22:46:49 8 983 0 0 SW 0 96.6 926
22:49:46 8 983 0 0 SO 0 96.6 937
22:52:48 8 983 0 0 SO 0 96.6 951
22:55:48 8 984 0 0 SO 0 96.6 954
22:58:48 8 983 0 0 SO 0 96.6 946
23:01:46 8 984 0 0 SO 0 96.6 940
23:04:46 8 984 0 0 SO 0 96.6 940
23:07:48 8 984 0 0 SO 0 96.6 943
23:10:46 8 984 0 0 SO 0 96.6 948
23:13:47 8 983 0 0 SO 0 96.6 949
23:16:46 8 984 0 0 SO 0 96.6 939
23:19:46 8 983 0 0 SO 0 96.6 942
23:22:46 8 984 0 0 SO 0 96.6 936
23:25:45 8 983 0 0 SO 0 96.6 943
23:28:47 8 984 0 0 SO 0 96.6 943
23:31:47 8 984 0 0 SO 0 96.6 951
23:34:48 8 984 0 0 SO 0 96.6 958
23:37:45 8 984 0 0 SO 0 96.6 963
23:40:46 8 984 0 0 SO 0 96.6 960
23:43:48 8 984 0 0 SO 0 96.6 954
23:46:47 8 984 0 0 SO 0 96.6 956
23:49:46 8 984 0 0 SO 0 96.6 960
23:52:47 8 984 0 0 NO 0 96.6 967
23:55:47 8 984 0 0 NO 0 96.6 972
23:58:45 8 984 0 0 NO 0 96.6 978

Letzte Änderung : 22-Jul-2022
Copyright Jens Köhler, Wolfsburg, Obere Dorfstraße 10d